Location: Dąbrowa Wronowska
(51.1605°N, 22.1145°E)
Time: 11:03:44
(UTC+02:00)

ISS - Visible Passes

Search period start: 22 September 2018 00:00
Search period end: 02 October 2018 00:00
Orbit: 403 x 408 km, 51.6° (Epoch: 22 September)

Date Brightness Start Highest point End Pass type
(mag) Time Alt. Az. Time Alt. Az. Time Alt. Az.
22 Sep -1.5 20:28:04 10° SSW 20:28:50 15° SSW 20:28:50 15° SSW visible
23 Sep -2.2 19:36:54 10° S 19:39:12 18° SE 19:39:34 17° SE visible
23 Sep -0.9 21:11:59 10° WSW 21:12:17 12° WSW 21:12:17 12° WSW visible
24 Sep -3.1 20:20:15 10° SW 20:22:49 39° S 20:22:49 39° S visible
25 Sep -2.9 19:28:38 10° SSW 19:31:36 31° SSE 19:33:12 20° ESE visible
25 Sep -1.5 21:04:35 10° WSW 21:05:53 22° WSW 21:05:53 22° WSW visible
26 Sep -4.0 20:12:41 10° WSW 20:15:58 71° SSE 20:16:08 68° SE visible
27 Sep -3.5 19:20:50 10° SW 19:24:04 52° SSE 19:26:17 18° E visible
27 Sep -1.9 20:57:12 10° W 20:58:58 29° W 20:58:58 29° W visible
28 Sep -3.9 20:05:13 10° W 20:08:32 88° NNW 20:09:02 62° ENE visible
29 Sep -3.8 19:13:15 10° WSW 19:16:34 78° SSE 19:19:03 16° E visible
29 Sep -2.0 20:49:47 10° W 20:51:43 32° W 20:51:43 32° W visible
30 Sep -3.8 19:57:47 10° W 20:01:05 80° N 20:01:42 56° ENE visible
30 Sep -0.3 21:34:19 10° W 21:34:21 10° W 21:34:21 10° W visible
01 Oct -3.8 19:05:45 10° W 19:09:04 84° N 19:11:39 16° E visible
01 Oct -2.2 20:42:19 10° W 20:44:18 34° W 20:44:18 34° W visible
